Zurück zum Katalog

BREEZE-M DEB

TANK

AktivHEO
NORAD 37220·DEBRIS·🇷🇺 Russia

Gestartet Nov 14, 2010 von Baikonur Cosmodrome

Loading…

Nächste Überflüge (nächste 24 Stunden)

TLE

AktuellSource: Space-Track

Epoche: Sep 13, 2026, 06:43 UTC

1 37220U 10061C   26256.28005019  .00002495  00000-0  94316-3 0  9994
2 37220  49.4259 302.9321 5395151 166.8960 216.2552  4.92139903277429

Verfolge BREEZE-M DEB in Echtzeit mit AllMySat

Download on the App Store